Retour au catalogue

FENGYUN 1C DEB

ActifSSO
NORAD 29836·DEBRIS·🇨🇳 China

Lancé May 10, 1999 depuis Taiyuan Satellite Launch Center

Loading…

Prochains Passages (prochaines 24 heures)

TLE

FraisSource: Space-Track

Époque: Sep 14, 2026, 18:10 UTC

1 29836U 99025EE  26257.75749516  .00001082  00000-0  22383-3 0  9991
2 29836  98.1874 353.0404 0153317  68.8240  80.9317 14.55196615675687

Suivez FENGYUN 1C DEB en temps réel avec AllMySat

Download on the App Store